Find Starlink 5607

NORAD ID: 55404 Int'l Des: 2023-014 Owner: SPXS Country: US Constellation: starlink operational
LEOCIRCULAR

現在のビュー

3D地球を読み込み中...

About Starlink 5607

Starlink 5607 (NORAD 55404) is a starlink constellation satellite (v1.5) launched Jan 31, 2023 by SPXS of US. It operates in LEO, CIRCULAR orbit with a mass of 305.00 kg.

Starlink 5607について

説明を読み込み中...

次回通過

Passes for default location (London). Set your location on the main map for personalized predictions.

高度履歴

Loading altitude history...

軌道要素

1 55404U 23014P 26167.43469302 .00000099 00000-0 16070-4 0 9997
2 55404 69.9991 175.5967 0003440 268.5468 91.5297 14.98329907186845
Epoch: Jun 16, 2026 • Age: 11 hours

現在のステータス

高度 587.7 km
速度 7.57 km/s
衛星直下点 -46.58°S, 74.56°W
打ち上げ日 Jan 31, 2023
運用期間 3.3 years
タイプ internet

技術仕様

分類 Payload
質量 305.00 kg
乾燥質量 290.00 kg
総質量 305.00 kg
長さ 0.20 m
直径 2.80 m
スパン 9.00 m
形状 Box + pan
製造者 SPXS
バスタイプ Starlink
フェーズステータス In Orbit
所有者/国 SPXS/US

Most Searched